Skip Page Navigation
NASA JPL Caltech
NASA Logo - Jet Propulsion Laboratory + View the NASA Portal
+ Center for Near-Earth Object Studies
JPL Home Earth Solar System Stars & Galaxies Technology
JPL Solar System Dynamics
BODIES ORBITS EPHEMERIDES TOOLS PHYSICAL DATA DISCOVERY FAQ SITE MAP
JPL Small-Body Database Browser
Search: [ help ]  
212592 (2006 SH194)
Classification: Main-belt Asteroid          SPK-ID: 2212592
Ephemeris | Orbit Diagram | Orbital Elements | Mission Design | Physical Parameters | Discovery Circumstances | Close-Approach Data ]

[ show orbit diagram ]
Orbital Elements at Epoch 2459000.5 (2020-May-31.0) TDB
Reference: JPL 9 (heliocentric ecliptic J2000)
 Element Value Uncertainty (1-sigma)   Units 
e .04816942634940953 7.201e-08  
a 3.088371813028906 4.1352e-08 au
q 2.939606714441617 2.3685e-07 au
i 10.03755552863298 1.0561e-05 deg
node 3.625485779300391 3.5948e-05 deg
peri 311.1696803567969 0.00010897 deg
M 244.3946061199296 0.00010465 deg
tp 2459637.102579372408
(2022-Feb-26.60257937)
0.00058079 TDB
period 1982.406883296606
5.43
3.9815e-05
1.09e-07
d
yr
n .1815974324107192 3.6473e-09 deg/d
Q 3.237136911616194 4.3344e-08 au
  Orbit Determination Parameters
   # obs. used (total)      159  
   data-arc span      8956 days (24.52 yr)  
   first obs. used      1995-10-18  
   last obs. used      2020-04-25  
   planetary ephem.      DE431  
   SB-pert. ephem.      SB431-N16  
   condition code      0  
   norm. resid. RMS      .52221  
   source      ORB  
   producer      Otto Matic  
   solution date      2020-May-21 08:47:21  

Additional Information
 Earth MOID = 1.93866 au 
 Jupiter MOID = 1.95571 au 
 T_jup = 3.200 
[ show covariance matrix ]

Ephemeris | Orbit Diagram | Orbital Elements | Mission Design | Physical Parameters | Discovery Circumstances | Close-Approach Data ]

Physical Parameter Table
Parameter Symbol Value Units Sigma Reference Notes
absolute magnitude H 15.8   n/a MPO433389  

212592 (2006 SH194)          Discovered 2006-Sep-26 by Spacewatch at Kitt Peak
Reference: 20090409/Numbers.arcLast Updated: 2009-04-10

[ show close-approach data ]
Alternate Designations
 2006 SH194 = 1995 UK67 
Ephemeris | Orbit Diagram | Orbital Elements | Mission Design | Physical Parameters | Discovery Circumstances | Close-Approach Data ]
ABOUT SSD CREDITS/AWARDS PRIVACY/COPYRIGHT GLOSSARY LINKS
FirstGov 2020-Jul-13 15:59 UT
(server date/time)  
NASA Home Page
Site Manager:   Ryan S. Park
Webmaster  Alan B. Chamberlin